Weather History for Ishigakijima, Japan

Change the Weather History Date:

Friday, March 1, 2013

  Actual Average Record
Temperature  
Mean Temperature 74 °F -  
Max Temperature 80 °F 71 °F 80 °F (2013)
Min Temperature 69 °F 64 °F 57 °F (1998)
Cooling Degree Days 9    
Growing Degree Days 24 (Base 50)    
Moisture  
Dew Point 68 °F    
Average Humidity 78    
Maximum Humidity 88    
Minimum Humidity 66    
Precipitation  
Precipitation 0.00 in - - ()
Sea Level Pressure  
Sea Level Pressure 29.95 in    
Wind  
Wind Speed 6 mph ()    
Max Wind Speed 17 mph    
Max Gust Speed -    
Visibility 8.5 miles    
Events      
Averages and records for this station are not official NWS values.
T = Trace of Precipitation, MM = Missing Value Source: Averaged Metar Reports

Daily Weather History Graph

Daily Weather History Graph

Search for Another Location

Airport:

Trip Planner

Search our weather history database for the weather conditions in past years. The results will help you decide how hot, cold, wet, or windy it might be!

Date:

Astronomy

Mar. 01, 2013 Rise Set
Actual Time 7:05 AM JST 6:45 PM JST
Civil Twilight 6:43 AM JST 7:08 PM JST
Nautical Twilight 6:16 AM JST 7:35 PM JST
Astronomical Twilight 5:50 AM JST 8:01 PM JST
Moon 10:08 PM JST (3/1) 8:58 AM JST (3/1)
Length of Visible Light 12h 25m
Length of Day
11h 39m
Waning Gibbous, 88% of the Moon is Illuminated
Mar 1
Waning Gibbous
Mar 5
Last Quarter
Mar 12
New
Mar 20
First Quarter
Mar 27
Full

Hourly Weather History & Observations

Time (JST) Temp. Dew Point Humidity Pressure Visibility Wind Dir Wind Speed Gust Speed Precip Events Conditions
12:00 AM 71 °F 67 °F 82% 29.97 in - NE 4.6 mph - -  
3:00 AM 70 °F 65 °F 80% 29.96 in 12 mi NE 4.6 mph - -   Scattered Clouds
6:00 AM 69 °F 65 °F 85% 29.96 in 12 mi ENE 4.6 mph - -   Partly Cloudy
6:00 AM 68.0 °F 64.4 °F 88% 29.95 in 6.2 mi NNE 3.5 mph - N/A   Partly Cloudy
7:00 AM 71.6 °F 68.0 °F 88% 29.95 in 6.2 mi SE 4.6 mph - N/A   Partly Cloudy
8:00 AM 73.4 °F 68.0 °F 83% 29.98 in 6.2 mi SSE 5.8 mph - N/A   Partly Cloudy
9:00 AM 75 °F 69 °F 76% 30.00 in 12 mi SSE 6.9 mph - -   Scattered Clouds
9:00 AM 75.2 °F 68.0 °F 78% 29.98 in 6.2 mi SSE 8.1 mph - N/A   Partly Cloudy
10:00 AM 77.0 °F 69.8 °F 78% 29.98 in 6.2 mi South 10.4 mph - N/A   Partly Cloudy
11:00 AM 77.0 °F 68.0 °F 74% 29.98 in 6.2 mi SSE 13.8 mph - N/A   Partly Cloudy
12:00 PM 78 °F 69 °F 66% 29.94 in 16 mi SSE 17.3 mph - -   Scattered Clouds
12:00 PM 77.0 °F 68.0 °F 74% 29.92 in 6.2 mi South 13.8 mph - N/A   Partly Cloudy
1:00 PM 77.0 °F 69.8 °F 78% 29.95 in 6.2 mi South 12.7 mph - N/A   Partly Cloudy
2:00 PM 77.0 °F 69.8 °F 78% 29.92 in 6.2 mi SSW 11.5 mph - N/A   Scattered Clouds
3:00 PM 79 °F 70 °F 66% 29.94 in 16 mi SW 10.4 mph - -   Partly Cloudy
3:00 PM 77.0 °F 68.0 °F 74% 29.92 in 6.2 mi SW 8.1 mph - N/A   Partly Cloudy
4:00 PM 77.0 °F 69.8 °F 78% 29.92 in 6.2 mi WSW 5.8 mph - N/A   Scattered Clouds
5:00 PM 77.0 °F 68.0 °F 74% 29.92 in 6.2 mi SW 6.9 mph - N/A   Partly Cloudy
6:00 PM 77 °F 69 °F 69% 29.94 in 16 mi WNW 5.8 mph - -   Partly Cloudy
6:00 PM 75.2 °F 68.0 °F 78% 29.92 in 6.2 mi WNW 4.6 mph - N/A   Partly Cloudy
7:00 PM 73.4 °F 68.0 °F 83% 29.95 in 6.2 mi NW 3.5 mph - N/A   Scattered Clouds
8:00 PM 73.4 °F 68.0 °F 83% 29.95 in 6.2 mi North 5.8 mph - N/A   Mostly Cloudy
9:00 PM 74 °F 69 °F 78% 29.99 in 9 mi North 4.6 mph - -   Partly Cloudy